Regional Weather Roundup
Issued by NWS

Home | Current Version | Previous Version | Graphics & Text | Print | Product List | Glossary On
Versions: 1 2 3 4 5 6 7 8 9 10 11 12 13 14 15 16 17 18 19 20 21 22 23 24 25 26 27 28 29 30 31 32 33 34 35 36 37 38 39 40 41 42 43 44 45 46 47 48 49 50
000
ASUS43 KBIS 191002
RWRND

NORTH DAKOTA REGIONAL WEATHER ROUNDUP
NATIONAL WEATHER SERVICE BISMARCK ND
400 AM CST THU JAN 19 2017

NOTE: "FAIR" INDICATES FEW OR NO CLOUDS BELOW 12,000 FEET WITH NO
SIGNIFICANT WEATHER AND/OR OBSTRUCTIONS TO VISIBILITY.


NDZ001>003-009>011-017-191100-
NORTHWEST NORTH DAKOTA

CITY           SKY/WX    TMP DP  RH WIND       PRES   REMARKS
WILLISTON      FAIR      20  19  96 CALM      29.52F
MINOT          FAIR      27  22  81 SE3       29.49F
MINOT AFB      CLOUDY    28  23  83 SW6       29.48F
$$

NDZ018>021-031>035-040>046-191100-
SOUTHWEST NORTH DAKOTA

CITY           SKY/WX    TMP DP  RH WIND       PRES   REMARKS
BISMARCK       FAIR      19  14  81 CALM      29.56F
DICKINSON      FAIR      24  18  77 S3        29.50F
GARRISON         N/A     18  15  88 E3        29.50F
HETTINGER ARPT CLOUDY    13  10  88 CALM      29.55F
$$

NDZ004>008-012>016-024-026-027-054-191100-
NORTHEAST NORTH DAKOTA

CITY           SKY/WX    TMP DP  RH WIND       PRES   REMARKS
GRAND FORKS    CLOUDY    25  19  78 S12       29.61R WCI  14
GRND FRKS AFB  CLOUDY    25  19  77 S10       29.60R WCI  14
DEVILS LAKE    FAIR      25  19  78 S6        29.56S WCI  18
$$

NDZ022-023-025-028>030-036>039-047>053-191100-
SOUTHEAST NORTH DAKOTA

CITY           SKY/WX    TMP DP  RH WIND       PRES   REMARKS
FARGO          CLOUDY    27  25  92 S13       29.64F WCI  16
JAMESTOWN      FAIR      20  15  81 S9        29.58S WCI   9
$$





USA.gov is the U.S. government's official web portal to all federal, state and local government web resources and services.